OBJECT C, 57168

Orbit data source: Space-Track

You're viewing an uncataloged RSO

Recently launched and/or uncataloged RSOs may have evolving metadata. Metadata may include the following, but is not limited to: Owner, Manufacturer, Bus, Motor, and Mission.

OBJECT C, 57168 is a satellite in SSO that was launched on Tue, 27 Jun 2023 UTC via a SOYUZ-2-1B launch vehicle from the Vostochny Cosmodrome (VOSTO). Unknown objects in Earth's orbit typically refer to objects detected orbiting the Earth but have not yet been identified or cataloged. These objects could be anything from previously untracked satellites, spent rocket stages, debris from satellite collisions, or even natural meteoroids temporarily captured by Earth's gravity.

Loading next visibility...
Identifier
57168, 2023-091C
Orbit
SSO
Country
Flag of TBDTBD
Related business
None
Manufacturer
Unknown
Mission
Operational Amateur Technology
Bus & Motor
Unknown
Mass
Unknown
Launch date (UTC)
2023-06-27 (3 years ago)
Launch vehicle
SOYUZ-2-1B
Launch site
Vostochny Cosmodrome (VOSTO)
Object type
Unknown
Shape & HBR
Box, 0.2 m
Radar Cross Section
0.035 m², Medium (>0.1 m² and < 1m²)

Expand to show TLE details & history
Last TLE update: 8 hours ago

TLE from 8 hours ago
0 OBJECT C
1 57168U 23091C   26263.95129308  .00005642  00000-0  20928-3 0  9999
2 57168  97.4930 326.7563 0012179 125.4354 234.8024 15.27941712178870
Epoch: 2026-09-20T22:49Z
TLE epoch observation values (Epoch: 2026-09-20T22:49:51.722Z)
Latitude
-0.00001°
Longitude
-15.54732°
Altitude
489.888 km
Speed
7.617 km/s
True Right ascension
21h 47m 01s
True Declination
0° 00' 00"
Sunlit
Object was in full shadow at epoch
Visualization orbit readout
Latitude
Unknown
Longitude
Unknown
Altitude
Unknown
Speed
Unknown
Apparent Right ascension
Unknown
Apparent Declination
Unknown
Sunlit
N/A
Visualization observer readout
Local Sidereal Time
00:01:04
Azimuth
Unknown
Elevation
Unknown
Doppler factor
Unknown
Orbital elements
Apogee altitude
487.276 km
Perigee altitude
470.574 km
Semi-major axis
6,857.062 km
Eccentricity
0.00122
Inclination
97.493°
RAAN
326.7563°
Arg. of periapsis
125.4354°
True anomaly
234.68846°
Mean anomaly
234.8024°
Eccentric anomaly
234.74542°
Mean motion
3.8224 °/min
Orbital period
94.18 mins
BSTAR
0.00020928
Loading maneuver chart data...
Computing Atmospheric mass density...
Loading historical data...
Loading historical data...
Loading historical data...
Loading historical data...
Loading historical data...
Loading historical data...
Loading historical data...

Documentation

Showing up to 5 results
|